Hourly Weather Almalo

Today, 6 March, Saturday

Time Temperature Precipitation Wind Pressure Humidity
00:00 +6°C° 0 mm 2 mps 763 mmHg 74%
01:00 +5°C° 0 mm 2 mps 763 mmHg 72%
02:00 +5°C° 0 mm 2 mps 763 mmHg 70%
03:00 +5°C° 0 mm 2 mps 763 mmHg 68%
04:00 +5°C° 0 mm 2 mps 763 mmHg 66%
05:00 +5°C° 0 mm 2 mps 763 mmHg 63%
06:00 +5°C° 0 mm 2 mps 763 mmHg 61%
07:00 +7°C° 0 mm 2 mps 763 mmHg 55%
08:00 +8°C° 0 mm 2 mps 763 mmHg 48%
09:00 +10°C° 0 mm 3 mps 762 mmHg 42%
10:00 +11°C° 0 mm 3 mps 762 mmHg 39%
11:00 +13°C° 0 mm 4 mps 761 mmHg 37%
12:00 +14°C° 0 mm 4 mps 761 mmHg 35%
13:00 +14°C° 0 mm 5 mps 760 mmHg 37%
14:00 +14°C° 0 mm 5 mps 760 mmHg 39%
15:00 +14°C° 0 mm 5 mps 759 mmHg 41%
16:00 +12°C° 0 mm 5 mps 759 mmHg 48%
17:00 +10°C° 0 mm 5 mps 759 mmHg 55%
18:00 +8°C° 0 mm 5 mps 759 mmHg 62%
19:00 +8°C° 0 mm 5 mps 758 mmHg 63%
20:00 +8°C° 0 mm 5 mps 758 mmHg 64%
21:00 +8°C° 0 mm 4 mps 758 mmHg 65%
22:00 +8°C° 0 mm 4 mps 757 mmHg 65%
23:00 +8°C° 0 mm 3 mps 757 mmHg 64%

Tomorrow, 7 March, Sunday

Time Temperature Precipitation Wind Pressure Humidity
00:00 +8°C° 0 mm 2 mps 756 mmHg 64%
01:00 +8°C° 0 mm 3 mps 756 mmHg 60%
02:00 +8°C° 0 mm 3 mps 756 mmHg 57%
03:00 +7°C° 0 mm 4 mps 756 mmHg 54%
04:00 +6°C° 0 mm 7 mps 757 mmHg 61%
05:00 +5°C° 0 mm 9 mps 759 mmHg 68%
06:00 +4°C° 0 mm 12 mps 760 mmHg 75%
07:00 +3°C° 0.2 mm 12 mps 761 mmHg 76%
08:00 +2°C° 0.2 mm 12 mps 762 mmHg 77%
09:00 +1°C° 0.2 mm 11 mps 763 mmHg 78%
10:00 +1°C° 0 mm 11 mps 763 mmHg 69%
11:00 +2°C° 0 mm 11 mps 764 mmHg 60%
12:00 +3°C° 0 mm 11 mps 764 mmHg 51%
13:00 +3°C° 0 mm 10 mps 764 mmHg 47%
14:00 +2°C° 0 mm 9 mps 764 mmHg 43%
15:00 +2°C° 0 mm 9 mps 764 mmHg 39%
16:00 +3°C° 0 mm 7 mps 765 mmHg 40%
17:00 +2°C° 0 mm 5 mps 765 mmHg 42%
18:00 +1°C° 0 mm 4 mps 765 mmHg 43%
19:00 +2°C° 0 mm 3 mps 766 mmHg 45%
20:00 +3°C° 0 mm 2 mps 766 mmHg 48%
21:00 +3°C° 0 mm 1 mps 766 mmHg 50%
22:00 +3°C° 0 mm 1 mps 766 mmHg 51%
23:00 +3°C° 0 mm 1 mps 766 mmHg 53%

Day after tomorrow, 8 March, Monday

Time Temperature Precipitation Wind Pressure Humidity
00:00 +2°C° 0 mm 1 mps 766 mmHg 54%
01:00 +2°C° 0 mm 1 mps 766 mmHg 57%
02:00 +2°C° 0 mm 1 mps 766 mmHg 60%
03:00 +2°C° 0 mm 1 mps 766 mmHg 63%
04:00 +2°C° 0 mm 1 mps 766 mmHg 64%
05:00 +1°C° 0 mm 2 mps 766 mmHg 64%
06:00 +1°C° 0 mm 2 mps 766 mmHg 65%
07:00 +2°C° 0 mm 2 mps 766 mmHg 61%
08:00 +2°C° 0 mm 3 mps 765 mmHg 58%
09:00 +3°C° 0 mm 3 mps 765 mmHg 54%
10:00 +4°C° 0 mm 4 mps 764 mmHg 53%
11:00 +5°C° 0 mm 5 mps 764 mmHg 52%
12:00 +4°C° 0 mm 6 mps 763 mmHg 51%
13:00 +4°C° 0 mm 6 mps 762 mmHg 52%
14:00 +4°C° 0 mm 7 mps 762 mmHg 53%
15:00 +4°C° 0 mm 7 mps 761 mmHg 54%
16:00 +3°C° 0 mm 6 mps 761 mmHg 60%
17:00 +3°C° 0 mm 5 mps 761 mmHg 65%
18:00 +3°C° 0 mm 4 mps 761 mmHg 71%
19:00 +3°C° 0 mm 4 mps 761 mmHg 72%
20:00 +3°C° 0 mm 3 mps 761 mmHg 74%
21:00 +3°C° 0 mm 3 mps 761 mmHg 76%
22:00 +4°C° 0 mm 2 mps 761 mmHg 77%
23:00 +4°C° 0 mm 2 mps 761 mmHg 78%

9 March, Tuesday

Time Temperature Precipitation Wind Pressure Humidity
00:00 +5°C° 0 mm 1 mps 761 mmHg 79%
01:00 +4°C° 0 mm 1 mps 761 mmHg 80%
02:00 +4°C° 0 mm 1 mps 761 mmHg 81%
03:00 +4°C° 0 mm 1 mps 760 mmHg 82%
04:00 +4°C° 0 mm 1 mps 761 mmHg 83%
05:00 +4°C° 0 mm 1 mps 761 mmHg 83%
06:00 +4°C° 0 mm 1 mps 761 mmHg 84%
07:00 +4°C° 0 mm 1 mps 761 mmHg 80%
08:00 +5°C° 0 mm 1 mps 761 mmHg 76%
09:00 +5°C° 0 mm 1 mps 762 mmHg 72%
10:00 +5°C° 0 mm 2 mps 761 mmHg 65%
11:00 +6°C° 0 mm 2 mps 761 mmHg 58%
12:00 +7°C° 0 mm 2 mps 761 mmHg 51%
13:00 +7°C° 0 mm 2 mps 761 mmHg 50%
14:00 +7°C° 0 mm 3 mps 761 mmHg 49%
15:00 +7°C° 0 mm 3 mps 760 mmHg 48%
16:00 +7°C° 0 mm 3 mps 761 mmHg 54%
17:00 +5°C° 0 mm 4 mps 761 mmHg 59%
18:00 +4°C° 0 mm 4 mps 761 mmHg 65%
19:00 +4°C° 0 mm 3 mps 762 mmHg 67%
20:00 +4°C° 0 mm 3 mps 762 mmHg 69%
21:00 +4°C° 0 mm 3 mps 763 mmHg 71%
22:00 +5°C° 0 mm 2 mps 763 mmHg 72%
23:00 +5°C° 0 mm 2 mps 763 mmHg 73%

10 March, Wednesday

Time Temperature Precipitation Wind Pressure Humidity
00:00 +5°C° 0 mm 2 mps 763 mmHg 74%
01:00 +4°C° 0.1 mm 2 mps 764 mmHg 79%
02:00 +2°C° 0.1 mm 3 mps 764 mmHg 84%
03:00 +1°C° 0.1 mm 4 mps 764 mmHg 89%
04:00 0°C° 0.2 mm 4 mps 765 mmHg 89%
05:00 0°C° 0.2 mm 4 mps 765 mmHg 90%
06:00 0°C° 0.2 mm 4 mps 766 mmHg 90%
07:00 0°C° 0.1 mm 4 mps 766 mmHg 86%
08:00 +1°C° 0.1 mm 3 mps 766 mmHg 82%
09:00 +2°C° 0.1 mm 3 mps 766 mmHg 78%
10:00 +2°C° 0.1 mm 3 mps 766 mmHg 73%
11:00 +3°C° 0.1 mm 3 mps 766 mmHg 69%
12:00 +3°C° 0.1 mm 3 mps 766 mmHg 64%
13:00 +3°C° 0.1 mm 3 mps 766 mmHg 62%
14:00 +3°C° 0.1 mm 4 mps 765 mmHg 59%
15:00 +3°C° 0.1 mm 4 mps 765 mmHg 57%
16:00 +1°C° 0 mm 4 mps 765 mmHg 58%
17:00 +1°C° 0 mm 4 mps 765 mmHg 59%
18:00 0°C° 0 mm 4 mps 765 mmHg 60%
19:00 0°C° 0 mm 4 mps 765 mmHg 61%
20:00 0°C° 0 mm 4 mps 765 mmHg 62%
21:00 0°C° 0 mm 4 mps 765 mmHg 63%
22:00 0°C° 0 mm 4 mps 765 mmHg 64%
23:00 0°C° 0 mm 4 mps 764 mmHg 66%

11 March, Thursday

Time Temperature Precipitation Wind Pressure Humidity
00:00 0°C° 0 mm 4 mps 764 mmHg 68%
01:00 +1°C° 0 mm 3 mps 764 mmHg 70%
02:00 +1°C° 0 mm 3 mps 764 mmHg 73%
03:00 0°C° 0 mm 3 mps 764 mmHg 76%
04:00 0°C° 0.2 mm 3 mps 764 mmHg 82%
05:00 0°C° 0.2 mm 3 mps 764 mmHg 88%
06:00 -1°C° 0.2 mm 3 mps 764 mmHg 93%
07:00 0°C° 0.3 mm 3 mps 765 mmHg 91%
08:00 0°C° 0.3 mm 3 mps 765 mmHg 88%
09:00 0°C° 0.3 mm 4 mps 765 mmHg 85%
10:00 0°C° 0.2 mm 4 mps 765 mmHg 86%
11:00 0°C° 0.2 mm 4 mps 765 mmHg 87%
12:00 0°C° 0.2 mm 4 mps 765 mmHg 88%
13:00 0°C° 0.2 mm 4 mps 765 mmHg 86%
14:00 +1°C° 0.2 mm 4 mps 765 mmHg 83%
15:00 +1°C° 0.2 mm 4 mps 765 mmHg 81%
16:00 +2°C° 0.1 mm 3 mps 765 mmHg 80%
17:00 +1°C° 0.1 mm 3 mps 765 mmHg 80%
18:00 +1°C° 0.1 mm 3 mps 766 mmHg 80%
19:00 +1°C° 0 mm 3 mps 766 mmHg 81%
20:00 0°C° 0 mm 3 mps 767 mmHg 82%
21:00 0°C° 0 mm 3 mps 767 mmHg 83%
22:00 0°C° 0 mm 3 mps 767 mmHg 83%
23:00 +1°C° 0 mm 2 mps 767 mmHg 84%
Show more